Location: Potomac Astrometric Observatory
(39.0475°N, 77.2064°W)
Time: 06:19:03
(UTC-04:00)

OTV 5 (USA 277) - Visible Passes

Search period start: 26 September 2018 00:00
Search period end: 06 October 2018 00:00
Orbit: 387 x 394 km, 54.5° (Epoch: 08 September)

Date Brightness Start Highest point End Pass type
(mag) Time Alt. Az. Time Alt. Az. Time Alt. Az.
26 Sep ? 05:40:12 10° S 05:42:46 22° SE 05:45:21 10° ENE visible
27 Sep ? 06:18:59 10° SW 06:22:10 66° NW 06:25:21 10° NE visible
28 Sep ? 05:25:17 41° SSE 05:25:51 47° SE 05:28:57 10° ENE visible
29 Sep ? 04:31:32 13° E 04:31:32 13° E 04:32:03 10° E visible
29 Sep ? 06:03:56 21° W 06:05:25 33° NW 06:08:22 10° NNE visible
30 Sep ? 05:10:04 39° NE 05:10:04 39° NE 05:12:12 10° NE visible
01 Oct ? 05:48:30 20° NW 05:48:45 20° NNW 05:51:13 10° NNE visible
02 Oct ? 04:54:26 16° NNE 04:54:26 16° NNE 04:55:15 10° NNE visible
03 Oct ? 05:32:43 13° NNW 05:32:43 13° NNW 05:33:48 10° N visible
